Location: Amherst
(42.3800°N, 72.5240°W)
Time: 17:34:48
(UTC-04:00)

ISS - Visible Passes

Search period start: 23 September 2018 00:00
Search period end: 03 October 2018 00:00
Orbit: 403 x 408 km, 51.6° (Epoch: 23 September)

Date Brightness Start Highest point End Pass type
(mag) Time Alt. Az. Time Alt. Az. Time Alt. Az.
23 Sep -3.8 19:44:58 10° SW 19:48:13 59° SE 19:50:28 18° ENE visible
23 Sep -0.8 21:22:04 10° W 21:23:10 17° WNW 21:23:10 17° WNW visible
24 Sep -2.5 20:29:47 10° W 20:32:53 37° NNW 20:33:41 31° N visible
25 Sep -3.3 19:37:38 10° WSW 19:40:53 60° NNW 19:44:03 11° NE visible
25 Sep -0.8 21:15:26 10° WNW 21:16:44 16° NW 21:16:44 16° NW visible
26 Sep -1.8 20:23:01 10° WNW 20:25:46 23° NNW 20:26:59 19° NNE visible
27 Sep -2.2 19:30:40 10° W 19:33:40 32° NNW 19:36:41 10° NE visible
27 Sep -0.8 21:08:43 10° NW 21:09:48 14° NNW 21:09:48 14° NNW visible
28 Sep -1.5 20:16:19 10° NW 20:18:41 18° N 20:19:53 15° NNE visible
29 Sep -1.7 19:23:53 10° WNW 19:26:30 21° NNW 19:29:08 10° NE visible
29 Sep -0.8 21:01:38 10° NW 21:02:35 14° NNW 21:02:35 14° NNW visible
30 Sep -1.5 20:09:27 10° NW 20:11:38 16° N 20:12:34 15° NNE visible
01 Oct -1.5 19:17:05 10° NW 19:19:23 17° N 19:21:40 10° NE visible
01 Oct -1.0 20:54:14 10° NW 20:55:12 15° NNW 20:55:12 15° NNW visible
02 Oct -1.7 20:02:13 10° NW 20:04:31 17° N 20:05:09 16° NNE visible
